This is the latest recevied weather packets stored in our database for station/object KD7AWQ. If no packets are shown the sender has not sent any weather packets the latest 10 day(s).
| Time | Temp. | Humidity | Pressure | Rain* | Wind** | Luminosity | Snow |
|---|---|---|---|---|---|---|---|
| 1777878669 | 18.33° C | 26% | 1183.2 hPa | 0 mm | - | 0 W/m² | - |
| 1777878366 | 18.33° C | 26% | 1183.1 hPa | 0 mm | - | 0 W/m² | - |
| 1777878056 | 18.89° C | 25% | 1183 hPa | 0 mm | - | 0 W/m² | - |
| 1777877752 | 18.33° C | 26% | 1182.8 hPa | 0 mm | - | 0 W/m² | - |
| 1777877450 | 18.33° C | 26% | 1182.9 hPa | 0 mm | - | 0 W/m² | - |
| 1777877147 | 18.89° C | 26% | 1183.3 hPa | 0 mm | - | 0 W/m² | - |
| 1777876844 | 18.89° C | 25% | 1183.1 hPa | 0 mm | - | 0 W/m² | - |
| 1777876542 | 19.44° C | 25% | 1183.1 hPa | 0 mm | - | 0 W/m² | - |
| 1777876238 | 19.44° C | 24% | 1183.1 hPa | 0 mm | - | 0 W/m² | - |
| 1777875935 | 18.89° C | 24% | 1183.1 hPa | 0 mm | - | 0 W/m² | - |
| 1777875631 | 19.44° C | 24% | 1183.2 hPa | 0 mm | - | 0 W/m² | - |
| 1777875327 | 18.89° C | 24% | 1183.3 hPa | 0 mm | - | 0 W/m² | - |
| 1777875025 | 19.44° C | 24% | 1183 hPa | 0 mm | - | 0 W/m² | - |
| 1777874720 | 18.89° C | 24% | 1183.2 hPa | 0 mm | - | 0 W/m² | - |
| 1777874417 | 19.44° C | 23% | 1182.8 hPa | 0 mm | - | 0 W/m² | - |
| 1777874115 | 18.89° C | 24% | 1183 hPa | 0 mm | - | 0 W/m² | - |
| 1777873812 | 18.89° C | 23% | 1183 hPa | 0 mm | - | 0 W/m² | - |
| 1777873508 | 18.89° C | 23% | 1183.1 hPa | 0 mm | - | 0 W/m² | - |
| 1777873206 | 19.44° C | 22% | 1183.1 hPa | 0 mm | - | 0 W/m² | - |
| 1777872902 | 20° C | 22% | 1182.9 hPa | 0 mm | - | 0 W/m² | - |
| 1777872600 | 20° C | 21% | 1183.5 hPa | 0 mm | - | 0 W/m² | - |
| 1777872297 | 20° C | 21% | 1183.6 hPa | 0 mm | - | 0 W/m² | - |
| 1777871995 | 21.11° C | 20% | 1183.2 hPa | 0 mm | - | 0 W/m² | - |
| 1777871691 | 21.11° C | 20% | 1183.5 hPa | 0 mm | - | 0 W/m² | - |
| 1777871388 | 21.11° C | 19% | 1183.3 hPa | 0 mm | - | 0 W/m² | - |
* Rain latest hour (hover to see other rain measurements)
** Current wind speed in m/s (hover to see current wind gust speed)